COSMOS 1844

Last updated on Mon Sep 21 2026 00:02:08 GMT+0000 (Coordinated Universal Time)

1 17973U 87041A 26263.49950035 -.00000173 00000+0 -64607-4 0 9990 2 17973 70.9010 343.2615 0028466 89.9651 270.4733 14.14578636 31133
UTC large
Height (km)
Speed (km/s)
/
Latitude / Longitude
Inclination (degrees)
Orbital Period (minutes)
Azimuth
Elevation
Range (km)
Doppler Factor

Next 0 passes for location: London (51.5072 / 0.1276)

No passes found over London.
COSMOS 1844